Location: Caltech
(34.1382°N, 118.1253°W)
Time: 06:35:52
(UTC-08:00)

Iridium 49 - Visible Passes

Search period start: 18 December 2017 00:00
Search period end: 28 December 2017 00:00
Orbit: 776 x 779 km, 86.4° (Epoch: 17 December)

Date Brightness Start Highest point End Pass type
(mag) Time Alt. Az. Time Alt. Az. Time Alt. Az.
18 Dec 6.5 05:46:17 10° S 05:51:26 64° E 05:56:35 10° N visible
18 Dec 6.8 18:00:46 10° NNW 18:05:50 53° W 18:10:53 10° SSW visible
19 Dec 7.8 05:13:28 10° SSE 05:18:03 32° E 05:22:39 10° NNE visible
19 Dec 6.0 17:27:09 10° N 17:32:23 79° E 17:37:35 10° S visible
20 Dec 8.8 04:41:31 10° ESE 04:44:47 17° E 04:48:03 10° NE visible
20 Dec 6.4 06:20:07 10° SSW 06:25:04 44° W 06:30:02 10° NNW visible
20 Dec 8.7 18:35:37 10° NW 18:39:08 19° W 18:42:39 10° SW visible
21 Dec 6.0 05:46:17 10° S 05:51:30 86° W 05:56:44 10° N visible
21 Dec 7.7 18:01:09 10° NNW 18:05:52 35° W 18:10:33 10° SSW visible
22 Dec 7.0 05:13:04 10° SSE 05:18:04 48° E 05:23:04 10° NNE visible
22 Dec 6.4 17:27:16 10° N 17:32:28 70° W 17:37:38 10° S visible
23 Dec 8.2 04:40:32 10° SE 04:44:43 25° E 04:48:56 10° NNE visible
23 Dec 6.8 06:20:45 10° SW 06:25:15 29° W 06:29:47 10° NNW visible
23 Dec 9.0 18:37:02 10° NW 18:39:02 12° W 18:41:03 10° WSW visible
24 Dec 9.0 04:09:15 10° ESE 04:11:31 13° E 04:13:46 10° NE visible
24 Dec 6.1 05:46:31 10° SSW 05:51:37 57° W 05:56:45 10° N visible
24 Dec 8.4 18:01:44 10° NNW 18:05:50 24° W 18:09:56 10° SW visible
25 Dec 6.2 05:12:56 10° S 05:18:06 74° E 05:23:19 10° N visible
25 Dec 7.2 17:27:32 10° NNW 17:32:30 46° W 17:37:28 10° SSW visible
26 Dec 7.4 04:39:57 10° SSE 04:44:42 37° E 04:49:28 10° NNE visible
26 Dec 7.3 06:21:43 10° SW 06:25:30 20° W 06:29:16 10° NNW visible
27 Dec 8.5 04:07:47 10° SE 04:11:25 19° E 04:15:04 10° NE visible
27 Dec 6.5 05:46:58 10° SSW 05:51:47 38° W 05:56:37 10° NNW visible
27 Dec 8.8 18:02:39 10° NW 18:05:46 16° W 18:08:53 10° WSW visible
